TimeEDT,TemperatureF,Dew PointF,Humidity,Sea Level PressureIn,VisibilityMPH,Wind Direction,Wind SpeedMPH,Gust SpeedMPH,PrecipitationIn,Events,Conditions,WindDirDegrees,DateUTC
12:15 AM,45.9,43.2,90,29.98,7.0,NW,10.4,17.3,N/A,,Overcast,310,2013-04-09 04:15:00
12:34 AM,46.2,43.2,89,29.98,7.0,NW,6.9,-,N/A,,Overcast,310,2013-04-09 04:34:00
12:55 AM,45.5,42.8,90,30.00,7.0,WNW,5.8,-,N/A,,Overcast,300,2013-04-09 04:55:00
1:15 AM,46.4,43.2,88,30.01,5.0,NW,3.5,-,N/A,,Overcast,310,2013-04-09 05:15:00
1:34 AM,45.9,42.8,89,30.02,5.0,NW,6.9,-,N/A,,Overcast,310,2013-04-09 05:34:00
2:15 AM,45.5,42.6,90,30.03,7.0,NNW,9.2,-,N/A,,Overcast,330,2013-04-09 06:15:00
2:35 AM,45.5,42.3,88,30.03,7.0,NW,5.8,-,N/A,,Overcast,320,2013-04-09 06:35:00
2:55 AM,45.1,41.9,88,30.03,10.0,NNW,8.1,-,N/A,,Overcast,330,2013-04-09 06:55:00
3:15 AM,44.4,41.7,90,30.03,10.0,North,4.6,-,N/A,,Overcast,350,2013-04-09 07:15:00
3:35 AM,43.7,41.4,91,30.03,10.0,North,5.8,-,N/A,,Overcast,350,2013-04-09 07:35:00
3:55 AM,43.7,41.4,91,30.03,7.0,Calm,Calm,-,N/A,,Overcast,0,2013-04-09 07:55:00
4:15 AM,43.7,41.7,93,30.03,7.0,Calm,Calm,-,N/A,,Overcast,0,2013-04-09 08:15:00
4:35 AM,42.8,41.4,95,30.04,4.0,Calm,Calm,-,N/A,,Overcast,0,2013-04-09 08:35:00
4:55 AM,42.1,41.2,97,30.04,3.0,NE,4.6,-,N/A,,Overcast,40,2013-04-09 08:55:00
5:15 AM,41.2,40.5,97,30.04,1.5,North,4.6,-,N/A,,Overcast,10,2013-04-09 09:15:00
5:35 AM,41.0,40.5,98,30.04,1.0,NE,4.6,-,N/A,,Overcast,50,2013-04-09 09:35:00
5:55 AM,40.1,39.9,99,30.07,0.8,Calm,Calm,-,N/A,,Overcast,0,2013-04-09 09:55:00
6:14 AM,40.3,40.3,100,30.07,1.0,East,4.6,-,N/A,,Overcast,100,2013-04-09 10:14:00
6:35 AM,40.1,40.1,100,30.07,1.2,East,5.8,-,N/A,,Overcast,100,2013-04-09 10:35:00
6:55 AM,40.1,40.1,100,30.07,0.8,East,4.6,-,N/A,,Overcast,90,2013-04-09 10:55:00
7:14 AM,40.1,40.1,100,30.06,0.8,East,5.8,-,N/A,,Overcast,90,2013-04-09 11:14:00
7:35 AM,40.3,40.3,100,30.05,0.2,ESE,5.8,-,N/A,Fog,Fog,110,2013-04-09 11:35:00
7:54 AM,40.6,40.6,100,30.06,0.5,East,5.8,-,N/A,Fog,Fog,100,2013-04-09 11:54:00
8:15 AM,41.0,41.0,100,30.07,0.8,ESE,5.8,-,N/A,,Overcast,110,2013-04-09 12:15:00
8:35 AM,41.2,41.2,100,30.07,1.5,SE,6.9,-,N/A,,Overcast,130,2013-04-09 12:35:00
8:54 AM,41.9,41.9,100,30.06,2.5,ESE,6.9,-,N/A,,Overcast,120,2013-04-09 12:54:00
9:15 AM,42.8,42.8,100,30.06,4.0,SE,10.4,-,N/A,,Overcast,130,2013-04-09 13:15:00
9:34 AM,43.7,43.3,99,30.05,5.0,SE,9.2,-,N/A,,Overcast,140,2013-04-09 13:34:00
9:55 AM,45.0,44.1,97,30.04,5.0,SE,11.5,-,N/A,,Overcast,130,2013-04-09 13:55:00
10:15 AM,46.6,44.8,93,30.04,5.0,SE,9.2,-,N/A,,Mostly Cloudy,130,2013-04-09 14:15:00
10:34 AM,48.9,45.5,88,30.04,7.0,SE,9.2,-,N/A,,Scattered Clouds,140,2013-04-09 14:34:00
10:55 AM,48.7,43.9,83,30.05,7.0,SSE,10.4,-,N/A,,Mostly Cloudy,150,2013-04-09 14:55:00
11:15 AM,49.8,43.7,79,30.05,10.0,SE,15.0,18.4,N/A,,Overcast,140,2013-04-09 15:15:00
11:35 AM,48.7,43.0,80,30.04,10.0,ESE,11.5,-,N/A,,Overcast,120,2013-04-09 15:35:00
11:55 AM,48.2,43.5,84,30.01,7.0,ESE,9.2,-,N/A,Rain,Rain,110,2013-04-09 15:55:00
12:15 PM,48.2,44.6,87,30.01,7.0,SE,10.4,-,N/A,Rain,Light Rain,130,2013-04-09 16:15:00
12:35 PM,47.8,44.6,89,30.00,7.0,SE,10.4,-,N/A,Rain,Light Rain,140,2013-04-09 16:35:00
12:55 PM,47.3,44.6,90,30.00,5.0,ESE,8.1,-,N/A,Rain,Rain,110,2013-04-09 16:55:00
1:15 PM,47.3,44.4,90,30.00,5.0,ESE,6.9,-,N/A,Rain,Light Rain,110,2013-04-09 17:15:00
1:35 PM,46.9,44.8,92,29.98,5.0,East,8.1,-,N/A,Rain,Light Rain,90,2013-04-09 17:35:00
1:55 PM,46.9,45.1,93,29.96,5.0,East,6.9,-,N/A,,Overcast,90,2013-04-09 17:55:00
2:14 PM,47.3,45.3,93,29.95,5.0,East,8.1,-,N/A,,Overcast,80,2013-04-09 18:14:00
2:35 PM,47.5,45.7,93,29.92,4.0,ESE,8.1,-,N/A,,Overcast,110,2013-04-09 18:35:00
2:55 PM,48.2,45.7,91,29.93,4.0,East,5.8,-,N/A,,Overcast,80,2013-04-09 18:55:00
3:14 PM,48.6,45.7,90,29.92,4.0,East,4.6,-,N/A,,Overcast,80,2013-04-09 19:14:00
3:35 PM,49.3,45.7,87,29.92,4.0,ESE,3.5,-,N/A,,Overcast,120,2013-04-09 19:35:00
3:55 PM,49.1,45.9,89,29.93,3.0,North,5.8,-,N/A,,Overcast,350,2013-04-09 19:55:00
4:15 PM,48.4,46.0,92,29.92,2.0,NE,5.8,-,N/A,,Overcast,40,2013-04-09 20:15:00
4:35 PM,48.2,46.4,93,29.90,2.5,NE,6.9,-,N/A,,Overcast,50,2013-04-09 20:35:00
4:55 PM,48.2,46.4,93,29.89,2.5,ENE,6.9,-,N/A,,Overcast,60,2013-04-09 20:55:00
5:15 PM,48.2,46.4,93,29.88,2.5,East,8.1,-,N/A,Rain,Light Rain,80,2013-04-09 21:15:00
5:35 PM,48.2,46.4,93,29.88,2.5,East,8.1,-,N/A,,Overcast,80,2013-04-09 21:35:00
5:55 PM,48.0,46.4,94,29.88,1.8,East,6.9,-,N/A,Rain,Heavy Rain,100,2013-04-09 21:55:00
6:15 PM,48.0,46.8,95,29.88,1.8,East,3.5,-,N/A,,Overcast,90,2013-04-09 22:15:00
6:35 PM,48.2,46.9,95,29.90,2.0,NE,5.8,-,N/A,,Overcast,50,2013-04-09 22:35:00
6:55 PM,47.5,46.6,97,29.90,2.0,East,5.8,-,N/A,,Overcast,80,2013-04-09 22:55:00
7:15 PM,47.3,46.4,97,29.90,2.5,East,3.5,-,N/A,,Overcast,80,2013-04-09 23:15:00
7:35 PM,46.8,46.0,97,29.90,2.5,ENE,4.6,-,N/A,,Overcast,70,2013-04-09 23:35:00
7:55 PM,46.6,45.9,97,29.89,3.0,East,4.6,-,N/A,Rain,Light Rain,90,2013-04-09 23:55:00
8:15 PM,46.4,45.9,98,29.93,2.5,North,8.1,-,N/A,Rain,Light Rain,350,2013-04-10 00:15:00
8:35 PM,46.0,45.7,99,29.92,0.5,NNE,5.8,-,N/A,,Overcast,20,2013-04-10 00:35:00
8:54 PM,45.7,45.5,99,29.92,1.5,NNE,6.9,-,N/A,Rain,Light Rain,30,2013-04-10 00:54:00
9:15 PM,45.5,45.5,100,29.93,2.0,NE,9.2,-,N/A,Rain,Heavy Rain,40,2013-04-10 01:15:00
9:35 PM,46.2,46.0,99,29.97,3.0,NNE,5.8,-,N/A,Rain,Heavy Rain,30,2013-04-10 01:35:00
9:54 PM,45.5,45.1,99,29.96,1.5,North,6.9,-,N/A,Rain,Light Rain,360,2013-04-10 01:54:00
10:15 PM,45.0,44.8,99,29.97,7.0,North,5.8,-,N/A,,Overcast,10,2013-04-10 02:15:00
10:55 PM,43.7,43.3,99,29.98,7.0,NNE,4.6,-,N/A,,Overcast,20,2013-04-10 02:55:00
11:15 PM,43.3,43.2,99,29.98,7.0,North,6.9,-,N/A,,Overcast,10,2013-04-10 03:15:00
11:34 PM,43.2,43.0,99,29.98,7.0,NNE,6.9,-,N/A,,Overcast,20,2013-04-10 03:34:00
11:55 PM,43.0,42.8,99,29.99,7.0,NE,8.1,-,N/A,,Overcast,40,2013-04-10 03:55:00